This is the latest recevied weather packets stored in our database for station/object W0JRT-6. If no packets are shown the sender has not sent any weather packets the latest 10 day(s).
| Time | Temp. | Humidity | Pressure | Rain* | Wind** | Luminosity | Snow |
|---|---|---|---|---|---|---|---|
| 1778037601 | 10.56° C | 81% | 1011.5 hPa | 6.1 mm | - | - | - |
| 1778036998 | 10.56° C | 80% | 1011.4 hPa | 6.1 mm | - | - | - |
| 1778036411 | 11.11° C | 74% | 1011.2 hPa | 6.1 mm | - | - | - |
| 1778035198 | 11.11° C | 67% | 1010.7 hPa | 6.1 mm | - | - | - |
| 1778034599 | 11.11° C | 66% | 1010.7 hPa | 6.1 mm | - | - | - |
| 1778033998 | 11.11° C | 65% | 1010.6 hPa | 6.1 mm | - | - | - |
| 1778033406 | 11.11° C | 64% | 1010.5 hPa | 6.1 mm | - | - | - |
| 1778032798 | 11.11° C | 65% | 1010.3 hPa | 6.1 mm | - | - | - |
| 1778031599 | 11.11° C | 75% | 1009.8 hPa | 6.1 mm | - | - | - |
| 1778030410 | 11.67° C | 74% | 1009.6 hPa | 6.1 mm | - | - | - |
| 1778029808 | 11.67° C | 66% | 1009.4 hPa | 6.1 mm | - | - | - |
| 1778028609 | 12.22° C | 59% | 1008.9 hPa | 6.1 mm | - | - | - |
| 1778027412 | 12.78° C | 60% | 1008.7 hPa | 6.1 mm | - | - | - |
| 1778025598 | 13.33° C | 75% | 1008.6 hPa | 6.1 mm | - | - | - |
| 1778023804 | 13.33° C | 76% | 1008.4 hPa | 6.1 mm | - | - | - |
| 1778023198 | 13.33° C | 75% | 1008.3 hPa | 6.1 mm | - | - | - |
| 1778022605 | 13.33° C | 75% | 1008.5 hPa | 6.1 mm | - | - | - |
| 1778022001 | 12.78° C | 74% | 1008.5 hPa | 6.1 mm | - | - | - |
| 1778021405 | 12.78° C | 77% | 1008.5 hPa | 6.1 mm | - | - | - |
| 1778020249 | 12.78° C | 74% | 1008.1 hPa | 6.1 mm | - | - | - |
| 1778020198 | 12.78° C | 74% | 1008.1 hPa | 6.1 mm | - | - | - |
| 1778019610 | 12.78° C | 74% | 1008.2 hPa | 6.1 mm | - | - | - |
| 1778019006 | 12.78° C | 73% | 1008.3 hPa | 6.1 mm | - | - | - |
| 1778018404 | 12.78° C | 74% | 1008.4 hPa | 6.1 mm | - | - | - |
| 1778017808 | 12.78° C | 76% | 1008.6 hPa | 6.1 mm | - | - | - |
* Rain since midnight (hover to see other rain measurements)
** Current wind speed in m/s (hover to see current wind gust speed)